www.pogodaiklimat.ru

Погода и климат >> Архив погоды >> Россия >> Красноярский край >> Хатанга


АРХИВ ПОГОДЫ в Хатанге

Время (UTC), дата Ветер
(напр.,м/с)
 
Видим.   Явления Облачность Т
(С)
Тd
(С)
f
(%)
Тe
(С)
Тes
(С)
Комфортность P
(гПа)
Po
(гПа)
Тmin
(С)
Tmax
(С)
R
(мм)
R24
(мм)
S
(см)
21 8.06 С 4 10 км слаб. ливневой дождь 9/6 480 м
[Cb cap Ac trans Ci fib]
+5.0 +4.1 94 +1 +1 по сезону 1006.6 1002.5
00 9.06 С 4 10 км слаб. ливневой дождь 9/6 570 м
[Cb cap Ac und]
+4.8 +4.0 95 0 +1 по сезону 1005.8 1001.9 0.9
03 9.06 СВ 4 20 км в посл. час ливневой дождь 9/8 150 м
[Sc diur, vesp Ac lent]
+5.7 +4.5 92 +2 +2 по сезону 1003.7 999.7
06 9.06 С 7
{10}
20 км {ливн. осадки} 8/3 600 м
[Sc diur, vesp Ac lent Ci sp]
+7.6 +5.7 88 +3 +4 по сезону 1001.5 997.5
09 9.06 С 6
{10}
20 км 9/3 600 м
[Cu med, cong Ac lent Ci sp]
+8.9 +6.3 84 +5 +6 по сезону 998.2 994.3
12 9.06 СВ 6
{11}
20 км 8/3 600 м
[Sc diur, vesp Ac lent Ci sp]
+8.7 +6.7 87 +5 +5 по сезону 993.3 989.5 +10.6 0.7
15 9.06
{15}
20 км 8/5 300 м
[Sc diur, vesp Ac lent]
+8.0 +7.1 94 993.9 990.0
18 9.06 З 6 2000 м дымка 10/10 120 м
[St]
+4.7 +4.2 97 -1 -1 по сезону 995.7 991.7
21 9.06 З 5 20 км 10/10 120 м
[St]
+2.6 +1.8 94 -3 -3 по сезону 997.0 993.0
00 10.06 СЗ 5 20 км 10/10 150 м
[St]
+2.4 +1.7 95 -3 -3 прохладно 997.0 993.1 +2.0 1
03 10.06 СЗ 3 2000 м слаб. ливневой снег 9/8 100 м
[Frnb Ci]
+0.6 +0.6 100 -4 -3 прохладно 997.1 993.0
06 10.06 СЗ 5 4000 м слаб. ливневой дождь 9/9 180 м
[Cb cap]
+2.4 +1.5 94 -3 -3 холодно 996.9 993.0
09 10.06 СЗ 2 10 км слаб. ливневой дождь 9/8 240 м
[Cb cap Ac und]
+2.9 +2.0 94 -0 +1 по сезону 997.6 993.7
12 10.06 СЗ 2 10 км слаб. ливневой дождь 9/5 720 м
[Cb cap Ac und]
+4.0 +2.5 90 +1 +2 по сезону 998.0 994.1 +4.0 8
15 10.06 СЗ 2 10 км слаб. ливневой дождь 9/8 300 м
[Cb cap Ac und]
+3.4 +1.9 90 0 0 по сезону 998.1 994.1
18 10.06 СЗ 3 20 км {ливн. осадки} 9/3 300 м
[Sc diur, vesp Ac lent]
+2.5 -0.2 82 -2 -2 по сезону 998.2 994.2
21 10.06 СЗ 3 20 км 9/5 800 м
[Sc Ac lent]
+2.1 +0.1 87 -2 -2 по сезону 998.5 994.5
00 11.06 СЗ 4 20 км 9/8 330 м
[Sc Ac und]
+2.4 +0.3 86 -3 -2 по сезону 998.5 994.5 +2.0 0.5
03 11.06 СЗ 4 10 км слаб. ливневой дождь 9/6 450 м
[Cb cap Ac und]
+3.2 0.0 80 -1 -0 по сезону 998.9 994.9
06 11.06 СЗ 4 10 км слаб. ливневой дождь 9/6 540 м
[Cb cap Ac und]
+3.8 +0.7 80 -1 +1 прохладно 999.2 995.1
09 11.06 СЗ 4 20 км {ливн. осадки} 9/6 630 м
[Sc Ac und]
+4.3 +0.4 76 0 +1 по сезону 1000.3 996.2
12 11.06 СЗ 6 10 км слаб. ливневой дождь 9/9 240 м
[Cb cap]
+2.6 +1.0 89 -3 -3 прохладно 1001.7 997.6 +4.7 0.4
15 11.06 З 5 10 км слаб. ливневой дождь 10/9 240 м
[Cb cap]
+1.6 +0.3 91 -4 -4 прохладно 1002.9 998.9
18 11.06 З 4 20 км {ливн. осадки} 9/6 630 м
[Sc Ac und]
+1.9 -0.6 83 -3 -3 по сезону 1003.9 999.8
21 11.06 СЗ 5 20 км 9/6 600 м
[Sc Ac und]
+1.4 -1.8 79 -4 -4 прохладно 1005.0 1000.9
00 12.06 СЗ 7 20 км 9/6 480 м
[Sc Ac und]
+2.5 -5.3 56 -3 -3 прохладно 1004.1 1000.0 +1.4 0.4
03 12.06 З 6
{10}
20 км 9/6 500 м
[Sc Ac und]
+2.6 -6.4 51 -3 -2 прохладно 1004.9 1000.8
06 12.06 З 6 20 км 9/6 480 м
[Sc Ac und]
+3.7 -5.1 53 -1 -1 прохладно 1005.5 1001.4
09 12.06 З 6
{10}
20 км 9/6 420 м
[Sc Ac und]
+4.6 -5.2 49 0 +1 прохладно 1006.2 1002.1
12 12.06 З 5 20 км 9/8 450 м
[Sc Ac und]
+4.4 -5.3 49 0 0 по сезону 1006.8 1002.7 +4.7
15 12.06 ЮЗ 2 20 км 9/0
[Ac cuf]
+3.7 -1.3 70 +1 +1 по сезону 1007.4 1003.4
18 12.06 ЮВ 2 20 км 3/0
[Ac trans]
+2.5 -1.7 74 -0 -0 по сезону 1007.8 1003.8
21 12.06 ЮВ 4 20 км 8/0
[Ac trans]
+4.5 -3.2 57 +1 +1 по сезону 1008.0 1003.9
00 13.06 В 7 20 км 4/0
[Ac trans Cc]
+7.0 -2.0 53 +3 +4 по сезону 1006.5 1002.6
03 13.06 ЮВ 4 20 км 3/3 600 м
[Cu hum]
+10.2 -0.9 46 +8 +12 тепло 1005.6 1001.6
06 13.06 Ю 5 20 км 4/4 600 м
[Cu med, cong]
+13.3 -5.8 26 +12 +15 тепло 1004.7 1000.8
09 13.06 Ю 6
{11}
20 км 5/3 600 м
[Cu hum Ac cast Ci fib]
+15.8 -5.1 23 +15 +16 тепло 1003.2 999.3
12 13.06 Ю 6
{11}
20 км 6/3 600 м
[Cu hum Ac trans Ci fib]
+16.8 -5.2 22 +16 +16 тепло 1001.7 997.8 +16.8
15 13.06 ЮВ 5 20 км 8/0
[Ac trans Ci fib]
+16.1 -1.5 30 +15 +15 тепло 999.3 995.4
18 13.06 ЮВ 9
{13}
20 км 9/0
[Ac trans Ci fib]
+14.0 -1.1 35 +12 +12 тепло 996.0 992.1
21 13.06 ЮВ 8
{12}
10 км слаб. ливневой дождь 9/6 960 м
[Cb cap Ac und]
+9.5 +5.3 75 +5 +5 тепло 992.7 988.8
00 14.06 Ю 7
{11}
20 км {ливн. осадки} 8/3 600 м
[Cu med, cong Ac trans Ci fib]
+14.1 +7.8 66 +12 +12 тепло 991.4 987.5 +9.5 0.3
03 14.06 Ю 10
{13}
10 км 6/3 600 м
[Cu med, cong Ac lent Ci fib]
+18.1 +5.1 42 +17 +17 тепло 990.5 986.7
06 14.06 Ю 11
{14}
20 км 8/4 600 м
[Sc diur, vesp Ac lent Ci sp]
+17.7 +6.9 49 +16 +16 тепло 990.2 986.4
09 14.06 ЮВ 8
{12}
20 км {ливн. осадки} 8/3 600 м
[Cu hum Ac lent Ci]
+19.6 +13.3 67 +21 +21 комфорт 987.5 983.7
12 14.06 Ю 7
{12}
20 км {ливн. осадки} 8/3 600 м
[Cu med, cong Ac cast Ci]
+21.2 +11.6 54 +23 +23 комфорт 985.8 982.2 +22.1 0.3
15 14.06 ЮВ 8
{12}
10 км слаб. ливневой дождь 9/6 400 м
[Cb cap Ac cast Ci]
+19.2 +11.8 62 +20 +20 тепло 984.1 980.3
18 14.06 З 14
{23}
10 км слаб. ливневой дождь 9/9 360 м
[Cb cap]
+4.7 +2.7 87 -3 -3 прохладно 989.6 985.6
21 14.06 ЮЗ 7
{18}
20 км {ливн. осадки} 9/5 630 м
[Cu med, cong Ac trans Cc]
+3.4 +0.5 81 -3 -2 прохладно 995.1 991.1
00 15.06 Ю 7
{10}
20 км {ливн. осадки} 8/4 600 м
[Cu hum Ac lent Cc]
+5.2 -0.3 68 0 +1 по сезону 997.2 993.2 +3.3 2
03 15.06 ЮЗ 6 20 км 6/3 600 м
[Cu med, cong Ac lent Ci fib]
+9.1 -0.6 51 +6 +8 по сезону 997.0 993.1
06 15.06 Ю 8
{12}
20 км 9/4 600 м
[Cu med, cong Ac lent Ci sp]
+10.3 +1.2 53 +7 +7 по сезону 996.3 992.4
09 15.06 ЮЗ 10
{17}
20 км 9/4 600 м
[Cu med, cong Ac trans Ci fib]
+13.9 -4.6 27 +11 +12 тепло 995.4 991.5
12 15.06 ЮЗ 10
{17}
20 км 9/4 600 м
[Sc diur, vesp Ac trans]
+11.6 -2.3 38 +8 +8 тепло 996.3 992.4 +11.6
15 15.06 З 7
{13}
20 км 8/3 600 м
[Sc diur, vesp Ac lent]
+8.6 +0.1 55 +5 +5 по сезону 998.4 994.5

 

Местоположение метеостанции Хатанга (Красноярский край, Россия): широта 71.98 долгота 102.47 высота над уровнем моря 33 м.

В архиве по умолчанию представлена погода в Хатанге за последнюю неделю. Архивные данные за месяц целиком и за предыдущие месяцы, начиная с января 2011 года, Вы можете получить, выбрав интересующий диапазон дат из раскрывающегося списка и нажав кнопку "Ввод!".


*Определитесь, кто Вы:
робот инопланетянин человек

Внимание! Время в таблицах - всемирное. Для получения местного времени необходимо прибавить поправку, которая равна 7 ч.

Смотрите также архив погоды в соседних городах и на ближайших метеорологических станциях:

Погода в Волочанке (Красноярский край, Россия) (303 км)
Погода в Анабаре (Якутия, Россия) (391 км)
Погода в Саскылахе (Якутия, Россия) (396 км)
Погода на Острове Преображения (Якутия, Россия) (447 км)
Погода в Джалинде (Якутия, Россия) (460 км)
Погода в Крестах Таймырских (Красноярский край, Россия) (462 км)
Погода в Оленеке (Якутия, Россия) (537 км)
Погода на Мысе Стерлегова (Красноярский край, Россия) (568 км)
Погода в Ярольине (Якутия, Россия) (587 км)
Погода на Усть-Оленеке (Якутия, Россия) (589 км)

Пояснения к столбцам:

Ветер - указаны скорость ветра в м/с - средняя за 10 мин, порывы в срок и между сроками (в фигурных скобках) и направление, откуда дует ветер: С - северный, СВ - северо-восточный, В - восточный, ЮВ - юго-восточный, Ю - южный, ЮЗ - юго-западный, З - западный, СЗ - северо-западный.
Видимость - горизонтальная дальность видимости в метрах или километрах. При видимости от 1 до 10 км при отсутствии осадков обычно наблюдается дымка, при ухудшении видимости до 1 км и менее - туман. В сухую погоду видимость может ухудшаться дымом, пылью или мглою.
Явления - указаны атмосферные явления, наблюдавшиеся в срок или в последний час перед сроком; фигурными скобками обозначены явления, наблюдавшиеся между сроками (за 1-3 часа до срока); квадратными скобками обозначены град или гололедные отложения с указанием их диаметра в мм.
Облачность - указаны через наклонную черту общая и нижняя облачность в баллах и высота нижней границы облаков в метрах; квадратными скобками обозначены формы облаков: Ci - перистые, Cs - перисто-слоистые, Cc - перисто-кучевые, Ac - высококучевые, As - высокослоистые, Sc - слоисто-кучевые, Ns - слоисто-дождевые, Cu - кучевые, Cb - кучево-дождевые. Подробнее классификацию облаков см. в Атласе облаков (PDF).
T - Температура воздуха - температура, измеренная на высоте 2 м над землей.
Td - Температура точки росы - температура, при понижении до которой содержащийся в воздухе водяной пар достигнет насыщения.
f - Относительная влажность воздуха - влажноcть воздуха, измеренная на высоте 2 м над землей.
Te - Эффективная температура - температура, которую ощущает одетый по сезону человек в тени. Характеристика душности погоды. При расчете учитывается влияние влажности воздуха и скорости ветра на теплоощущения человека.
Tes - Эффективная температура на солнце - температура, которую ощущает человек, с поправкой на солнечный нагрев. Характеристика знойности погоды. Зависит от высоты солнца над горизонтом, облачности и скорости ветра. Ночью, в пасмурную погоду, а также при ветре 12 м/с и более поправка равна нулю.
P - Атмосферное давление - приведенное к уровню моря атмосферное давление.
Po - Атмосферное давление - измеренное на уровне метеостанции атмосферное давление.
Tmin - Минимальная температура - минимум температуры воздуха на высоте 2 м над землей.
Tmax - Максимальная температура - максимум температуры воздуха на высоте 2 м над землей.
R - Количество осадков - Количество выпавших осадков за период времени, мм. При наведении курсора мыши на число - период времени, за который выпало указанное количество осадков.
R24 - Количество осадков - Количество выпавших осадков за 24 часа, мм.
S - Снежный покров - Высота снежного покрова, см. При наведении курсора мыши на число - состояние снежного покрова и степень покрытия местности в баллах.